Year,Month,Day,Hour,Minute,Value (Times are PST for temperature in C)
2016,09,22,00,00,9.50
2016,09,22,00,01,9.50
2016,09,22,00,02,9.50
2016,09,22,00,03,9.40
2016,09,22,00,04,9.50
2016,09,22,00,05,9.50
2016,09,22,00,06,9.50
2016,09,22,00,07,9.40
2016,09,22,00,08,9.40
2016,09,22,00,09,9.40
2016,09,22,00,10,9.40
2016,09,22,00,11,9.30
2016,09,22,00,12,9.30
2016,09,22,00,13,9.30
2016,09,22,00,14,9.30
2016,09,22,00,15,9.30
2016,09,22,00,16,9.30
2016,09,22,00,17,9.30
2016,09,22,00,18,9.20
2016,09,22,00,19,9.20
2016,09,22,00,20,9.20
2016,09,22,00,21,9.20
2016,09,22,00,22,9.20
2016,09,22,00,23,9.20
2016,09,22,00,24,9.20
2016,09,22,00,25,9.20
2016,09,22,00,26,9.20
2016,09,22,00,27,9.20
2016,09,22,00,28,9.20
2016,09,22,00,29,9.20
2016,09,22,00,30,9.20
2016,09,22,00,31,9.20
2016,09,22,00,32,9.20
2016,09,22,00,33,9.10
2016,09,22,00,34,9.10
2016,09,22,00,35,9.10
2016,09,22,00,36,9.10
2016,09,22,00,37,9.10
2016,09,22,00,38,9.00
2016,09,22,00,39,9.00
2016,09,22,00,40,8.90
2016,09,22,00,41,8.90
2016,09,22,00,42,8.90
2016,09,22,00,43,8.90
2016,09,22,00,44,8.80
2016,09,22,00,45,8.80
2016,09,22,00,46,8.80
2016,09,22,00,47,8.80
2016,09,22,00,48,8.80
2016,09,22,00,49,8.80
2016,09,22,00,50,8.80
2016,09,22,00,51,8.80
2016,09,22,00,52,8.80
2016,09,22,00,53,8.80
2016,09,22,00,54,8.80
2016,09,22,00,55,8.70
2016,09,22,00,56,8.70
2016,09,22,00,57,8.70
2016,09,22,00,58,8.70
2016,09,22,00,59,8.70
2016,09,22,01,00,8.70
2016,09,22,01,01,8.60
2016,09,22,01,02,8.70
2016,09,22,01,03,8.70
2016,09,22,01,04,8.70
2016,09,22,01,05,8.80
2016,09,22,01,06,8.80
2016,09,22,01,07,8.80
2016,09,22,01,08,8.80
2016,09,22,01,09,8.80
2016,09,22,01,10,8.80
2016,09,22,01,11,8.80
2016,09,22,01,12,8.80
2016,09,22,01,13,8.80
2016,09,22,01,14,8.70
2016,09,22,01,15,8.80
2016,09,22,01,16,8.70
2016,09,22,01,17,8.70
2016,09,22,01,18,8.70
2016,09,22,01,19,8.70
2016,09,22,01,20,8.70
2016,09,22,01,21,8.70
2016,09,22,01,22,8.70
2016,09,22,01,23,8.70
2016,09,22,01,24,8.70
2016,09,22,01,25,8.70
2016,09,22,01,26,8.70
2016,09,22,01,27,8.70
2016,09,22,01,28,8.60
2016,09,22,01,29,8.60
2016,09,22,01,30,8.60
2016,09,22,01,31,8.60
2016,09,22,01,32,8.60
2016,09,22,01,33,8.60
2016,09,22,01,34,8.60
2016,09,22,01,35,8.50
2016,09,22,01,36,8.50
2016,09,22,01,37,8.50
2016,09,22,01,38,8.40
2016,09,22,01,39,8.40
2016,09,22,01,40,8.40
2016,09,22,01,41,8.40
2016,09,22,01,42,8.40
2016,09,22,01,43,8.40
2016,09,22,01,44,8.40
2016,09,22,01,45,8.30
2016,09,22,01,46,8.30
2016,09,22,01,47,8.30
2016,09,22,01,48,8.30
2016,09,22,01,49,8.30
2016,09,22,01,50,8.30
2016,09,22,01,51,8.30
2016,09,22,01,52,8.30
2016,09,22,01,53,8.30
2016,09,22,01,54,8.30
2016,09,22,01,55,8.30
2016,09,22,01,56,8.30
2016,09,22,01,57,8.30
2016,09,22,01,58,8.30
2016,09,22,01,59,8.30
2016,09,22,02,00,8.30
2016,09,22,02,01,8.30
2016,09,22,02,02,8.30
2016,09,22,02,03,8.30
2016,09,22,02,04,8.20
2016,09,22,02,05,8.20
2016,09,22,02,06,8.20
2016,09,22,02,07,8.20
2016,09,22,02,08,8.20
2016,09,22,02,09,8.20
2016,09,22,02,10,8.20
2016,09,22,02,11,8.20
2016,09,22,02,12,8.20
2016,09,22,02,13,8.20
2016,09,22,02,14,8.10
2016,09,22,02,15,8.20
2016,09,22,02,16,8.20
2016,09,22,02,17,8.10
2016,09,22,02,18,8.10
2016,09,22,02,19,8.10
2016,09,22,02,20,8.10
2016,09,22,02,21,8.10
2016,09,22,02,22,8.10
2016,09,22,02,23,8.10
2016,09,22,02,24,8.10
2016,09,22,02,25,8.10
2016,09,22,02,26,8.10
2016,09,22,02,27,8.10
2016,09,22,02,28,8.10
2016,09,22,02,29,8.10
2016,09,22,02,30,8.10
2016,09,22,02,31,8.10
2016,09,22,02,32,8.10
2016,09,22,02,33,8.10
2016,09,22,02,34,8.10
2016,09,22,02,35,8.10
2016,09,22,02,36,8.00
2016,09,22,02,37,8.00
2016,09,22,02,38,8.00
2016,09,22,02,39,8.00
2016,09,22,02,40,8.00
2016,09,22,02,41,8.00
2016,09,22,02,42,8.00
2016,09,22,02,43,8.00
2016,09,22,02,44,7.90
2016,09,22,02,45,7.90
2016,09,22,02,46,7.90
2016,09,22,02,47,7.90
2016,09,22,02,48,7.90
2016,09,22,02,49,7.90
2016,09,22,02,50,7.90
2016,09,22,02,51,7.90
2016,09,22,02,52,7.90
2016,09,22,02,53,7.90
2016,09,22,02,54,7.90
2016,09,22,02,55,7.90
2016,09,22,02,56,7.90
2016,09,22,02,57,7.90
2016,09,22,02,58,7.90
2016,09,22,02,59,7.90
2016,09,22,03,00,7.90
2016,09,22,03,01,7.80
2016,09,22,03,02,7.80
2016,09,22,03,03,7.80
2016,09,22,03,04,7.80
2016,09,22,03,05,7.80
2016,09,22,03,06,7.80
2016,09,22,03,07,7.80
2016,09,22,03,08,7.80
2016,09,22,03,09,7.70
2016,09,22,03,10,7.70
2016,09,22,03,11,7.70
2016,09,22,03,12,7.70
2016,09,22,03,13,7.60
2016,09,22,03,14,7.60
2016,09,22,03,15,7.60
2016,09,22,03,16,7.60
2016,09,22,03,17,7.60
2016,09,22,03,18,7.50
2016,09,22,03,19,7.50
2016,09,22,03,20,7.50
2016,09,22,03,21,7.50
2016,09,22,03,22,7.50
2016,09,22,03,23,7.50
2016,09,22,03,24,7.50
2016,09,22,03,25,7.50
2016,09,22,03,26,7.50
2016,09,22,03,27,7.50
2016,09,22,03,28,7.50
2016,09,22,03,29,7.50
2016,09,22,03,30,7.50
2016,09,22,03,31,7.50
2016,09,22,03,32,7.50
2016,09,22,03,33,7.60
2016,09,22,03,34,7.60
2016,09,22,03,35,7.60
2016,09,22,03,36,7.50
2016,09,22,03,37,7.50
2016,09,22,03,38,7.50
2016,09,22,03,39,7.50
2016,09,22,03,40,7.50
2016,09,22,03,41,7.50
2016,09,22,03,42,7.50
2016,09,22,03,43,7.50
2016,09,22,03,44,7.50
2016,09,22,03,45,7.50
2016,09,22,03,46,7.50
2016,09,22,03,47,7.50
2016,09,22,03,48,7.40
2016,09,22,03,49,7.40
2016,09,22,03,50,7.40
2016,09,22,03,51,7.40
2016,09,22,03,52,7.40
2016,09,22,03,53,7.40
2016,09,22,03,54,7.30
2016,09,22,03,55,7.30
2016,09,22,03,56,7.30
2016,09,22,03,57,7.20
2016,09,22,03,58,7.20
2016,09,22,03,59,7.20
2016,09,22,04,00,7.20
2016,09,22,04,01,7.20
2016,09,22,04,02,7.10
2016,09,22,04,03,7.10
2016,09,22,04,04,7.10
2016,09,22,04,05,7.10
2016,09,22,04,06,7.10
2016,09,22,04,07,7.10
2016,09,22,04,08,7.00
2016,09,22,04,09,7.00
2016,09,22,04,10,7.00
2016,09,22,04,11,7.00
2016,09,22,04,12,7.00
2016,09,22,04,13,6.90
2016,09,22,04,14,6.90
2016,09,22,04,15,6.90
2016,09,22,04,16,6.90
2016,09,22,04,17,6.90
2016,09,22,04,18,6.90
2016,09,22,04,19,6.90
2016,09,22,04,20,6.90
2016,09,22,04,21,6.90
2016,09,22,04,22,6.90
2016,09,22,04,23,7.00
2016,09,22,04,24,7.00
2016,09,22,04,25,7.00
2016,09,22,04,26,7.10
2016,09,22,04,27,7.10
2016,09,22,04,28,7.10
2016,09,22,04,29,7.10
2016,09,22,04,30,7.00
2016,09,22,04,31,7.00
2016,09,22,04,32,7.00
2016,09,22,04,33,7.00
2016,09,22,04,34,7.00
2016,09,22,04,35,7.00
2016,09,22,04,36,7.00
2016,09,22,04,37,7.00
2016,09,22,04,38,7.00
2016,09,22,04,39,7.00
2016,09,22,04,40,7.00
2016,09,22,04,41,7.00
2016,09,22,04,42,7.00
2016,09,22,04,43,7.00
2016,09,22,04,44,7.00
2016,09,22,04,45,7.00
2016,09,22,04,46,7.00
2016,09,22,04,47,7.00
2016,09,22,04,48,7.00
2016,09,22,04,49,7.00
2016,09,22,04,50,7.00
2016,09,22,04,51,7.00
2016,09,22,04,52,7.00
2016,09,22,04,53,6.90
2016,09,22,04,54,6.90
2016,09,22,04,55,6.90
2016,09,22,04,56,6.90
2016,09,22,04,57,6.90
2016,09,22,04,58,6.90
2016,09,22,04,59,6.90
2016,09,22,05,00,6.90
2016,09,22,05,01,6.90
2016,09,22,05,02,6.90
2016,09,22,05,03,6.90
2016,09,22,05,04,6.90
2016,09,22,05,05,6.90
2016,09,22,05,06,6.90
2016,09,22,05,07,6.90
2016,09,22,05,08,6.90
2016,09,22,05,09,6.90
2016,09,22,05,10,6.90
2016,09,22,05,11,6.90
2016,09,22,05,12,6.90
2016,09,22,05,13,6.90
2016,09,22,05,14,6.90
2016,09,22,05,15,6.90
2016,09,22,05,16,6.90
2016,09,22,05,17,6.80
2016,09,22,05,18,6.80
2016,09,22,05,19,6.80
2016,09,22,05,20,6.80
2016,09,22,05,21,6.80
2016,09,22,05,22,6.80
2016,09,22,05,23,6.80
2016,09,22,05,24,6.80
2016,09,22,05,25,6.80
2016,09,22,05,26,6.80
2016,09,22,05,27,6.80
2016,09,22,05,28,6.80
2016,09,22,05,29,6.80
2016,09,22,05,30,6.80
2016,09,22,05,31,6.80
2016,09,22,05,32,6.80
2016,09,22,05,33,6.70
2016,09,22,05,34,6.70
2016,09,22,05,35,6.70
2016,09,22,05,36,6.70
2016,09,22,05,37,6.70
2016,09,22,05,38,6.70
2016,09,22,05,39,6.70
2016,09,22,05,40,6.70
2016,09,22,05,41,6.70
2016,09,22,05,42,6.70
2016,09,22,05,43,6.70
2016,09,22,05,44,6.70
2016,09,22,05,45,6.70
2016,09,22,05,46,6.70
2016,09,22,05,47,6.70
2016,09,22,05,48,6.70
2016,09,22,05,49,6.70
2016,09,22,05,50,6.70
2016,09,22,05,51,6.60
2016,09,22,05,52,6.60
2016,09,22,05,53,6.60
2016,09,22,05,54,6.60
2016,09,22,05,55,6.60
2016,09,22,05,56,6.60
2016,09,22,05,57,6.60
2016,09,22,05,58,6.60
2016,09,22,05,59,6.60
2016,09,22,06,00,6.60
2016,09,22,06,01,6.60
2016,09,22,06,02,6.60
2016,09,22,06,03,6.60
2016,09,22,06,04,6.60
2016,09,22,06,05,6.60
2016,09,22,06,06,6.60
2016,09,22,06,07,6.60
2016,09,22,06,08,6.60
2016,09,22,06,09,6.60
2016,09,22,06,10,6.60
2016,09,22,06,11,6.60
2016,09,22,06,12,6.60
2016,09,22,06,13,6.60
2016,09,22,06,14,6.60
2016,09,22,06,15,6.60
2016,09,22,06,16,6.60
2016,09,22,06,17,6.60
2016,09,22,06,18,6.60
2016,09,22,06,19,6.60
2016,09,22,06,20,6.60
2016,09,22,06,21,6.50
2016,09,22,06,22,6.50
2016,09,22,06,23,6.60
2016,09,22,06,24,6.60
2016,09,22,06,25,6.60
2016,09,22,06,26,6.50
2016,09,22,06,27,6.50
2016,09,22,06,28,6.40
2016,09,22,06,29,6.40
2016,09,22,06,30,6.40
2016,09,22,06,31,6.30
2016,09,22,06,32,6.30
2016,09,22,06,33,6.30
2016,09,22,06,34,6.30
2016,09,22,06,35,6.30
2016,09,22,06,36,6.30
2016,09,22,06,37,6.30
2016,09,22,06,38,6.30
2016,09,22,06,39,6.30
2016,09,22,06,40,6.40
2016,09,22,06,41,6.30
2016,09,22,06,42,6.30
2016,09,22,06,43,6.30
2016,09,22,06,44,6.30
2016,09,22,06,45,6.30
2016,09,22,06,46,6.30
2016,09,22,06,47,6.30
2016,09,22,06,48,6.30
2016,09,22,06,49,6.30
2016,09,22,06,50,6.30
2016,09,22,06,51,6.30
2016,09,22,06,52,6.30
2016,09,22,06,53,6.30
2016,09,22,06,54,6.30
2016,09,22,06,55,6.30
2016,09,22,06,56,6.40
2016,09,22,06,57,6.40
2016,09,22,06,58,6.40
2016,09,22,06,59,6.40
2016,09,22,07,00,6.40
2016,09,22,07,01,6.40
2016,09,22,07,02,6.40
2016,09,22,07,03,6.40
2016,09,22,07,04,6.40
2016,09,22,07,05,6.40
2016,09,22,07,06,6.30
2016,09,22,07,07,6.30
2016,09,22,07,08,6.30
2016,09,22,07,09,6.30
2016,09,22,07,10,6.30
2016,09,22,07,11,6.30
2016,09,22,07,12,6.30
2016,09,22,07,13,6.30
2016,09,22,07,14,6.30
2016,09,22,07,15,6.30
2016,09,22,07,16,6.30
2016,09,22,07,17,6.30
2016,09,22,07,18,6.30
2016,09,22,07,19,6.30
2016,09,22,07,20,6.40
2016,09,22,07,21,6.40
2016,09,22,07,22,6.40
2016,09,22,07,23,6.40
2016,09,22,07,24,6.40
2016,09,22,07,25,6.40
2016,09,22,07,26,6.40
2016,09,22,07,27,6.40
2016,09,22,07,28,6.50
2016,09,22,07,29,6.50
2016,09,22,07,30,6.50
2016,09,22,07,31,6.60
2016,09,22,07,32,6.60
2016,09,22,07,33,6.60
2016,09,22,07,34,6.60
2016,09,22,07,35,6.60
2016,09,22,07,36,6.60
2016,09,22,07,37,6.60
2016,09,22,07,38,6.70
2016,09,22,07,39,6.70
2016,09,22,07,40,6.70
2016,09,22,07,41,6.80
2016,09,22,07,42,6.80
2016,09,22,07,43,6.80
2016,09,22,07,44,6.80
2016,09,22,07,45,6.90
2016,09,22,07,46,6.90
2016,09,22,07,47,6.90
2016,09,22,07,48,7.00
2016,09,22,07,49,7.00
2016,09,22,07,50,7.10
2016,09,22,07,51,7.20
2016,09,22,07,52,7.20
2016,09,22,07,53,7.30
2016,09,22,07,54,7.30
2016,09,22,07,55,7.40
2016,09,22,07,56,7.40
2016,09,22,07,57,7.50
2016,09,22,07,58,7.60
2016,09,22,07,59,7.70
2016,09,22,08,00,7.80
2016,09,22,08,01,7.90
2016,09,22,08,02,8.00
2016,09,22,08,03,8.10
2016,09,22,08,04,8.20
2016,09,22,08,05,8.20
2016,09,22,08,06,8.20
2016,09,22,08,07,8.20
2016,09,22,08,08,8.20
2016,09,22,08,09,8.20
2016,09,22,08,10,8.20
2016,09,22,08,11,8.30
2016,09,22,08,12,8.30
2016,09,22,08,13,8.40
2016,09,22,08,14,8.40
2016,09,22,08,15,8.40
2016,09,22,08,16,8.40
2016,09,22,08,17,8.40
2016,09,22,08,18,8.50
2016,09,22,08,19,8.60
2016,09,22,08,20,8.70
2016,09,22,08,21,8.70
2016,09,22,08,22,8.70
2016,09,22,08,23,8.70
2016,09,22,08,24,8.80
2016,09,22,08,25,8.80
2016,09,22,08,26,8.90
2016,09,22,08,27,9.00
2016,09,22,08,28,9.10
2016,09,22,08,29,9.30
2016,09,22,08,30,9.40
2016,09,22,08,31,9.50
2016,09,22,08,32,9.60
2016,09,22,08,33,9.60
2016,09,22,08,34,9.70
2016,09,22,08,35,9.80
2016,09,22,08,36,9.90
2016,09,22,08,37,9.90
2016,09,22,08,38,10.00
2016,09,22,08,39,10.00
2016,09,22,08,40,10.10
2016,09,22,08,41,10.10
2016,09,22,08,42,10.20
2016,09,22,08,43,10.30
2016,09,22,08,44,10.30
2016,09,22,08,45,10.40
2016,09,22,08,46,10.50
2016,09,22,08,47,10.50
2016,09,22,08,48,10.60
2016,09,22,08,49,10.70
2016,09,22,08,50,10.80
2016,09,22,08,51,10.90
2016,09,22,08,52,11.00
2016,09,22,08,53,11.10
2016,09,22,08,54,11.20
2016,09,22,08,55,11.20
2016,09,22,08,56,11.30
2016,09,22,08,57,11.30
2016,09,22,08,58,11.30
2016,09,22,08,59,11.30
2016,09,22,09,00,11.30
2016,09,22,09,01,11.40
2016,09,22,09,02,11.40
2016,09,22,09,03,11.40
2016,09,22,09,04,11.40
2016,09,22,09,05,11.50
2016,09,22,09,06,11.60
2016,09,22,09,07,11.60
2016,09,22,09,08,11.70
2016,09,22,09,09,11.70
2016,09,22,09,10,11.70
2016,09,22,09,11,11.70
2016,09,22,09,12,11.80
2016,09,22,09,13,11.90
2016,09,22,09,14,12.00
2016,09,22,09,15,12.10
2016,09,22,09,16,12.20
2016,09,22,09,17,12.40
2016,09,22,09,18,12.50
2016,09,22,09,19,12.60
2016,09,22,09,20,12.70
2016,09,22,09,21,12.90
2016,09,22,09,22,13.10
2016,09,22,09,23,13.20
2016,09,22,09,24,13.30
2016,09,22,09,25,13.50
2016,09,22,09,26,13.60
2016,09,22,09,27,13.70
2016,09,22,09,28,13.70
2016,09,22,09,29,13.80
2016,09,22,09,30,13.90
2016,09,22,09,31,13.90
2016,09,22,09,32,14.00
2016,09,22,09,33,14.10
2016,09,22,09,34,14.20
2016,09,22,09,35,14.30
2016,09,22,09,36,14.40
2016,09,22,09,37,14.50
2016,09,22,09,38,14.60
2016,09,22,09,39,14.70
2016,09,22,09,40,14.80
2016,09,22,09,41,14.90
2016,09,22,09,42,14.90
2016,09,22,09,43,14.90
2016,09,22,09,44,14.90
2016,09,22,09,45,14.90
2016,09,22,09,46,15.00
2016,09,22,09,47,15.00
2016,09,22,09,48,15.00
2016,09,22,09,49,15.00
2016,09,22,09,50,15.00
2016,09,22,09,51,15.00
2016,09,22,09,52,15.00
2016,09,22,09,53,15.10
2016,09,22,09,54,15.10
2016,09,22,09,55,15.20
2016,09,22,09,56,15.30
2016,09,22,09,57,15.40
2016,09,22,09,58,15.50
2016,09,22,09,59,15.60
2016,09,22,10,00,15.70
2016,09,22,10,01,15.80
2016,09,22,10,02,15.90
2016,09,22,10,03,15.90
2016,09,22,10,04,16.00
2016,09,22,10,05,16.00
2016,09,22,10,06,16.00
2016,09,22,10,07,16.00
2016,09,22,10,08,16.00
2016,09,22,10,09,16.10
2016,09,22,10,10,16.10
2016,09,22,10,11,16.20
2016,09,22,10,12,16.30
2016,09,22,10,13,16.30
2016,09,22,10,14,16.30
2016,09,22,10,15,16.30
2016,09,22,10,16,16.30
2016,09,22,10,17,16.30
2016,09,22,10,18,16.30
2016,09,22,10,19,16.30
2016,09,22,10,20,16.30
2016,09,22,10,21,16.20
2016,09,22,10,22,16.20
2016,09,22,10,23,16.10
2016,09,22,10,24,16.10
2016,09,22,10,25,16.00
2016,09,22,10,26,15.90
2016,09,22,10,27,15.90
2016,09,22,10,28,15.90
2016,09,22,10,29,15.90
2016,09,22,10,30,15.80
2016,09,22,10,31,15.80
2016,09,22,10,32,15.80
2016,09,22,10,33,15.70
2016,09,22,10,34,15.60
2016,09,22,10,35,15.50
2016,09,22,10,36,15.50
2016,09,22,10,37,15.50
2016,09,22,10,38,15.50
2016,09,22,10,39,15.60
2016,09,22,10,40,15.60
2016,09,22,10,41,15.60
2016,09,22,10,42,15.70
2016,09,22,10,43,15.80
2016,09,22,10,44,15.80
2016,09,22,10,45,15.70
2016,09,22,10,46,15.70
2016,09,22,10,47,15.70
2016,09,22,10,48,15.70
2016,09,22,10,49,15.70
2016,09,22,10,50,15.70
2016,09,22,10,51,15.80
2016,09,22,10,52,15.80
2016,09,22,10,53,15.90
2016,09,22,10,54,15.80
2016,09,22,10,55,15.80
2016,09,22,10,56,15.80
2016,09,22,10,57,15.90
2016,09,22,10,58,15.90
2016,09,22,10,59,15.90
2016,09,22,11,00,15.90
2016,09,22,11,01,16.00
2016,09,22,11,02,16.00
2016,09,22,11,03,16.00
2016,09,22,11,04,16.00
2016,09,22,11,05,16.00
2016,09,22,11,06,15.90
2016,09,22,11,07,15.90
2016,09,22,11,08,15.90
2016,09,22,11,09,15.90
2016,09,22,11,10,16.00
2016,09,22,11,11,16.10
2016,09,22,11,12,16.10
2016,09,22,11,13,16.10
2016,09,22,11,14,16.10
2016,09,22,11,15,16.20
2016,09,22,11,16,16.20
2016,09,22,11,17,16.20
2016,09,22,11,18,16.20
2016,09,22,11,19,16.30
2016,09,22,11,20,16.30
2016,09,22,11,21,16.30
2016,09,22,11,22,16.30
2016,09,22,11,23,16.30
2016,09,22,11,24,16.20
2016,09,22,11,25,16.20
2016,09,22,11,26,16.20
2016,09,22,11,27,16.10
2016,09,22,11,28,16.10
2016,09,22,11,29,16.10
2016,09,22,11,30,16.20
2016,09,22,11,31,16.20
2016,09,22,11,32,16.30
2016,09,22,11,33,16.30
2016,09,22,11,34,16.30
2016,09,22,11,35,16.30
2016,09,22,11,36,16.40
2016,09,22,11,37,16.40
2016,09,22,11,38,16.40
2016,09,22,11,39,16.30
2016,09,22,11,40,16.30
2016,09,22,11,41,16.20
2016,09,22,11,42,16.20
2016,09,22,11,43,16.30
2016,09,22,11,44,16.30
2016,09,22,11,45,16.40
2016,09,22,11,46,16.50
2016,09,22,11,47,16.50
2016,09,22,11,48,16.40
2016,09,22,11,49,16.40
2016,09,22,11,50,16.30
2016,09,22,11,51,16.30
2016,09,22,11,52,16.40
2016,09,22,11,53,16.40
2016,09,22,11,54,16.50
2016,09,22,11,55,16.50
2016,09,22,11,56,16.50
2016,09,22,11,57,16.50
2016,09,22,11,58,16.50
2016,09,22,11,59,16.50
2016,09,22,12,00,16.50
2016,09,22,12,01,16.50
2016,09,22,12,02,16.40
2016,09,22,12,03,16.40
2016,09,22,12,04,16.40
2016,09,22,12,05,16.40
2016,09,22,12,06,16.50
2016,09,22,12,07,16.50
2016,09,22,12,08,16.50
2016,09,22,12,09,16.60
2016,09,22,12,10,16.60
2016,09,22,12,11,16.70
2016,09,22,12,12,16.80
2016,09,22,12,13,16.70
2016,09,22,12,14,16.70
2016,09,22,12,15,16.70
2016,09,22,12,16,16.60
2016,09,22,12,17,16.60
2016,09,22,12,18,16.70
2016,09,22,12,19,16.80
2016,09,22,12,20,16.80
2016,09,22,12,21,16.90
2016,09,22,12,22,16.90
2016,09,22,12,23,16.90
2016,09,22,12,24,16.80
2016,09,22,12,25,16.70
2016,09,22,12,26,16.70
2016,09,22,12,27,16.70
2016,09,22,12,28,16.60
2016,09,22,12,29,16.60
2016,09,22,12,30,16.50
2016,09,22,12,31,16.50
2016,09,22,12,32,16.50
2016,09,22,12,33,16.40
2016,09,22,12,34,16.30
2016,09,22,12,35,16.30
2016,09,22,12,36,16.30
2016,09,22,12,37,16.40
2016,09,22,12,38,16.40
2016,09,22,12,39,16.40
2016,09,22,12,40,16.50
2016,09,22,12,41,16.50
2016,09,22,12,42,16.40
2016,09,22,12,43,16.40
2016,09,22,12,44,16.30
2016,09,22,12,45,16.30
2016,09,22,12,46,16.30
2016,09,22,12,47,16.40
2016,09,22,12,48,16.50
2016,09,22,12,49,16.50
2016,09,22,12,50,16.60
2016,09,22,12,51,16.60
2016,09,22,12,52,16.60
2016,09,22,12,53,16.60
2016,09,22,12,54,16.60
2016,09,22,12,55,16.70
2016,09,22,12,56,16.70
2016,09,22,12,57,16.70
2016,09,22,12,58,16.70
2016,09,22,12,59,16.70
2016,09,22,13,00,16.70
2016,09,22,13,01,16.60
2016,09,22,13,02,16.60
2016,09,22,13,03,16.50
2016,09,22,13,04,16.50
2016,09,22,13,05,16.40
2016,09,22,13,06,16.30
2016,09,22,13,07,16.30
2016,09,22,13,08,16.30
2016,09,22,13,09,16.30
2016,09,22,13,10,16.40
2016,09,22,13,11,16.50
2016,09,22,13,12,16.60
2016,09,22,13,13,16.60
2016,09,22,13,14,16.60
2016,09,22,13,15,16.60
2016,09,22,13,16,16.50
2016,09,22,13,17,16.40
2016,09,22,13,18,16.20
2016,09,22,13,19,16.10
2016,09,22,13,20,16.00
2016,09,22,13,21,15.90
2016,09,22,13,22,15.90
2016,09,22,13,23,15.80
2016,09,22,13,24,15.80
2016,09,22,13,25,15.80
2016,09,22,13,26,15.90
2016,09,22,13,27,15.90
2016,09,22,13,28,16.00
2016,09,22,13,29,16.10
2016,09,22,13,30,16.20
2016,09,22,13,31,16.30
2016,09,22,13,32,16.20
2016,09,22,13,33,15.90
2016,09,22,13,34,15.80
2016,09,22,13,35,15.60
2016,09,22,13,36,15.60
2016,09,22,13,37,15.60
2016,09,22,13,38,15.60
2016,09,22,13,39,15.50
2016,09,22,13,40,15.40
2016,09,22,13,41,15.30
2016,09,22,13,42,15.30
2016,09,22,13,43,15.20
2016,09,22,13,44,15.20
2016,09,22,13,45,15.10
2016,09,22,13,46,15.10
2016,09,22,13,47,15.10
2016,09,22,13,48,15.10
2016,09,22,13,49,15.20
2016,09,22,13,50,15.20
2016,09,22,13,51,15.20
2016,09,22,13,52,15.20
2016,09,22,13,53,15.10
2016,09,22,13,54,15.10
2016,09,22,13,55,15.10
2016,09,22,13,56,15.10
2016,09,22,13,57,15.10
2016,09,22,13,58,15.10
2016,09,22,13,59,15.10
2016,09,22,14,00,15.10
2016,09,22,14,01,15.10
2016,09,22,14,02,15.20
2016,09,22,14,03,15.20
2016,09,22,14,04,15.30
2016,09,22,14,05,15.30
2016,09,22,14,06,15.30
2016,09,22,14,07,15.30
2016,09,22,14,08,15.30
2016,09,22,14,09,15.30
2016,09,22,14,10,15.30
2016,09,22,14,11,15.30
2016,09,22,14,12,15.30
2016,09,22,14,13,15.40
2016,09,22,14,14,15.50
2016,09,22,14,15,15.50
2016,09,22,14,16,15.60
2016,09,22,14,17,15.70
2016,09,22,14,18,15.70
2016,09,22,14,19,15.70
2016,09,22,14,20,15.70
2016,09,22,14,21,15.70
2016,09,22,14,22,15.70
2016,09,22,14,23,15.80
2016,09,22,14,24,15.90
2016,09,22,14,25,16.10
2016,09,22,14,26,16.20
2016,09,22,14,27,16.30
2016,09,22,14,28,16.30
2016,09,22,14,29,16.20
2016,09,22,14,30,16.20
2016,09,22,14,31,16.20
2016,09,22,14,32,16.30
2016,09,22,14,33,16.30
2016,09,22,14,34,16.40
2016,09,22,14,35,16.40
2016,09,22,14,36,16.40
2016,09,22,14,37,16.50
2016,09,22,14,38,16.60
2016,09,22,14,39,16.60
2016,09,22,14,40,16.70
2016,09,22,14,41,16.70
2016,09,22,14,42,16.70
2016,09,22,14,43,16.80
2016,09,22,14,44,16.80
2016,09,22,14,45,16.90
2016,09,22,14,46,16.90
2016,09,22,14,47,16.90
2016,09,22,14,48,16.90
2016,09,22,14,49,16.90
2016,09,22,14,50,17.00
2016,09,22,14,51,17.00
2016,09,22,14,52,17.10
2016,09,22,14,53,17.10
2016,09,22,14,54,17.10
2016,09,22,14,55,17.20
2016,09,22,14,56,17.30
2016,09,22,14,57,17.30
2016,09,22,14,58,17.30
2016,09,22,14,59,17.30
2016,09,22,15,00,17.20
2016,09,22,15,01,17.20
2016,09,22,15,02,17.20
2016,09,22,15,03,17.30
2016,09,22,15,04,17.40
2016,09,22,15,05,17.40
2016,09,22,15,06,17.30
2016,09,22,15,07,17.40
2016,09,22,15,08,17.40
2016,09,22,15,09,17.30
2016,09,22,15,10,17.30
2016,09,22,15,11,17.30
2016,09,22,15,12,17.20
2016,09,22,15,13,17.20
2016,09,22,15,14,17.10
2016,09,22,15,15,17.10
2016,09,22,15,16,17.10
2016,09,22,15,17,17.00
2016,09,22,15,18,16.90
2016,09,22,15,19,16.90
2016,09,22,15,20,16.80
2016,09,22,15,21,16.80
2016,09,22,15,22,16.80
2016,09,22,15,23,16.70
2016,09,22,15,24,16.70
2016,09,22,15,25,16.60
2016,09,22,15,26,16.60
2016,09,22,15,27,16.60
2016,09,22,15,28,16.60
2016,09,22,15,29,16.60
2016,09,22,15,30,16.70
2016,09,22,15,31,16.70
2016,09,22,15,32,16.70
2016,09,22,15,33,16.70
2016,09,22,15,34,16.70
2016,09,22,15,35,16.70
2016,09,22,15,36,16.70
2016,09,22,15,37,16.60
2016,09,22,15,38,16.50
2016,09,22,15,39,16.50
2016,09,22,15,40,16.50
2016,09,22,15,41,16.50
2016,09,22,15,42,16.50
2016,09,22,15,43,16.40
2016,09,22,15,44,16.30
2016,09,22,15,45,16.10
2016,09,22,15,46,15.90
2016,09,22,15,47,15.70
2016,09,22,15,48,15.60
2016,09,22,15,49,15.50
2016,09,22,15,50,15.40
2016,09,22,15,51,15.20
2016,09,22,15,52,15.10
2016,09,22,15,53,15.00
2016,09,22,15,54,15.00
2016,09,22,15,55,15.00
2016,09,22,15,56,15.00
2016,09,22,15,57,15.00
2016,09,22,15,58,15.00
2016,09,22,15,59,15.10
2016,09,22,16,00,15.20
2016,09,22,16,01,15.20
2016,09,22,16,02,15.20
2016,09,22,16,03,15.30
2016,09,22,16,04,15.40
2016,09,22,16,05,15.50
2016,09,22,16,06,15.60
2016,09,22,16,07,15.80
2016,09,22,16,08,15.90
2016,09,22,16,09,16.00
2016,09,22,16,10,16.10
2016,09,22,16,11,16.30
2016,09,22,16,12,16.40
2016,09,22,16,13,16.50
2016,09,22,16,14,16.70
2016,09,22,16,15,16.90
2016,09,22,16,16,17.00
2016,09,22,16,17,17.20
2016,09,22,16,18,17.40
2016,09,22,16,19,17.50
2016,09,22,16,20,17.60
2016,09,22,16,21,17.80
2016,09,22,16,22,17.90
2016,09,22,16,23,18.00
2016,09,22,16,24,18.10
2016,09,22,16,25,18.10
2016,09,22,16,26,18.20
2016,09,22,16,27,18.20
2016,09,22,16,28,18.20
2016,09,22,16,29,18.20
2016,09,22,16,30,18.20
2016,09,22,16,31,18.20
2016,09,22,16,32,18.20
2016,09,22,16,33,18.20
2016,09,22,16,34,18.20
2016,09,22,16,35,18.20
2016,09,22,16,36,18.20
2016,09,22,16,37,18.20
2016,09,22,16,38,18.10
2016,09,22,16,39,18.10
2016,09,22,16,40,18.00
2016,09,22,16,41,17.90
2016,09,22,16,42,17.90
2016,09,22,16,43,17.80
2016,09,22,16,44,17.70
2016,09,22,16,45,17.50
2016,09,22,16,46,17.40
2016,09,22,16,47,17.30
2016,09,22,16,48,17.10
2016,09,22,16,49,17.00
2016,09,22,16,50,16.80
2016,09,22,16,51,16.70
2016,09,22,16,52,16.50
2016,09,22,16,53,16.40
2016,09,22,16,54,16.20
2016,09,22,16,55,16.10
2016,09,22,16,56,15.90
2016,09,22,16,57,15.80
2016,09,22,16,58,15.70
2016,09,22,16,59,15.60
2016,09,22,17,00,15.50
2016,09,22,17,01,15.50
2016,09,22,17,02,15.40
2016,09,22,17,03,15.30
2016,09,22,17,04,15.30
2016,09,22,17,05,15.30
2016,09,22,17,06,15.30
2016,09,22,17,07,15.40
2016,09,22,17,08,15.40
2016,09,22,17,09,15.50
2016,09,22,17,10,15.60
2016,09,22,17,11,15.60
2016,09,22,17,12,15.60
2016,09,22,17,13,15.60
2016,09,22,17,14,15.60
2016,09,22,17,15,15.50
2016,09,22,17,16,15.50
2016,09,22,17,17,15.40
2016,09,22,17,18,15.40
2016,09,22,17,19,15.40
2016,09,22,17,20,15.30
2016,09,22,17,21,15.20
2016,09,22,17,22,15.20
2016,09,22,17,23,15.10
2016,09,22,17,24,15.00
2016,09,22,17,25,14.90
2016,09,22,17,26,15.00
2016,09,22,17,27,15.00
2016,09,22,17,28,15.10
2016,09,22,17,29,15.20
2016,09,22,17,30,15.20
2016,09,22,17,31,15.30
2016,09,22,17,32,15.30
2016,09,22,17,33,15.40
2016,09,22,17,34,15.50
2016,09,22,17,35,15.50
2016,09,22,17,36,15.60
2016,09,22,17,37,15.70
2016,09,22,17,38,15.70
2016,09,22,17,39,15.80
2016,09,22,17,40,15.90
2016,09,22,17,41,15.90